Theta_e
319 319 318 319 319 319 319 319 319 320 321 321 322 323 323 323 321 313 306 313 309 332 329 308 309 306 308 303 300 298 291 289 291 293 293 294 295 299 301 300 301 302 302 304 305
318 318 318 318 320 320 319 319 319 319 320 321 322 322 322 322 308 306 320 327 330 333 304 305 302 304 300 298 298 294 289 292 295 296 294 294 295 298 299 299 299 301 303 305 304
316 317 317 318 319 319 319 319 319 319 320 320 321 322 322 319 301 306 330 331 333 325 307 306 305 302 296 297 296 292 292 295 296 296 297 297 295 298 297 293 298 299 301 302 302
315 316 316 316 317 318 318 319 319 319 319 319 320 322 322 309 292 303 331 333 334 313 307 305 299 294 292 292 294 296 296 297 297 300 296 297 298 297 297 297 302 302 303 302 301
314 314 314 315 316 317 317 318 318 318 318 319 321 322 307 298 301 311 335 331 314 308 304 301 296 293 289 292 294 292 294 297 297 295 295 298 297 296 296 300 302 301 302 303 304
313 313 313 314 314 315 316 316 316 317 317 320 322 322 302 294 309 308 308 307 308 304 302 299 296 296 293 292 291 294 294 294 294 295 294 295 295 297 298 301 301 301 300 303 305
313 312 312 313 314 314 315 315 315 317 318 322 324 318 302 298 308 305 304 302 304 305 302 301 301 299 296 293 295 295 290 293 293 294 293 296 292 295 299 299 299 300 300 303 305
312 311 312 312 313 314 314 314 314 317 319 323 324 309 296 306 309 304 304 305 305 305 304 303 301 297 294 295 295 291 289 286 291 293 295 296 287 296 298 298 298 300 302 305 306
311 311 311 312 312 313 313 312 315 319 321 323 308 301 298 313 305 309 304 303 304 305 304 309 300 294 295 289 287 287 284 284 290 294 293 292 288 296 297 297 298 298 302 305 305
311 310 310 311 312 312 311 313 315 316 317 318 313 295 297 301 305 306 304 305 303 302 301 299 295 291 289 286 281 284 284 285 288 292 292 289 290 294 296 297 298 297 301 304 304
310 310 310 310 311 311 309 301 300 298 301 298 301 297 301 308 307 303 306 304 302 298 291 294 290 287 291 291 290 290 288 288 290 294 291 290 291 293 296 295 296 296 300 302 303
309 310 310 310 310 311 304 301 304 303 295 303 303 304 306 308 303 305 305 298 297 291 293 291 287 294 295 295 293 291 288 287 291 294 292 291 292 295 297 297 297 297 299 302 301
309 309 310 309 309 305 302 305 307 303 295 299 301 301 302 305 301 303 303 299 295 292 291 289 293 298 296 294 292 289 288 288 289 293 292 291 289 291 295 296 298 298 300 303 303
309 309 309 309 298 299 303 308 307 304 289 295 300 302 303 304 300 308 305 300 295 292 292 290 294 294 292 292 293 287 293 293 292 288 284 290 282 287 292 294 296 297 296 302 301
308 309 309 308 295 295 302 306 308 303 279 298 299 305 302 300 301 301 305 301 295 295 293 292 292 290 290 292 295 291 294 292 291 286 284 285 283 286 289 290 293 295 297 300 302
308 308 308 302 298 301 306 306 302 290 281 297 299 297 295 298 299 301 300 301 299 294 293 293 295 294 293 296 296 296 292 290 288 284 278 285 284 283 286 291 296 296 297 300 301
307 307 305 305 297 302 305 299 285 282 295 294 295 298 295 294 296 298 297 293 290 286 286 290 291 294 296 291 293 291 286 278 278 279 278 287 283 285 292 298 299 297 297 299 300
305 305 302 305 303 303 300 293 280 289 292 297 296 297 293 295 295 296 295 291 294 290 286 285 285 293 296 293 290 288 287 280 276 277 283 289 284 289 298 299 298 299 299 299 299
302 295 297 298 299 303 297 284 283 290 296 294 294 291 291 294 293 293 291 292 294 293 287 285 286 295 296 296 294 288 285 288 284 283 280 284 289 295 297 298 298 298 299 298 299
293 292 293 299 298 301 293 289 291 297 297 295 288 291 287 290 291 291 290 295 295 297 295 291 285 294 296 296 294 291 294 284 282 279 277 282 284 285 293 295 297 297 298 299 298
290 287 292 298 296 291 286 288 293 296 296 292 289 289 290 286 288 290 291 296 298 298 296 291 287 288 294 290 289 289 287 288 287 283 279 277 283 292 294 296 297 297 299 298 298
286 281 290 294 285 283 283 288 294 293 294 293 292 291 287 287 288 290 291 295 299 300 293 292 288 284 289 294 297 293 289 290 283 282 282 281 285 295 297 297 298 298 299 298 299
284 284 294 291 279 281 286 289 292 290 290 290 288 289 288 285 281 289 293 297 300 298 294 296 287 279 283 288 293 290 290 290 287 285 283 280 285 297 296 296 298 297 298 299 298
285 280 286 287 287 284 282 284 286 291 289 291 288 289 285 283 285 285 286 292 299 298 301 297 291 287 283 286 289 288 292 290 287 279 286 286 289 292 295 296 298 297 297 298 297
285 281 285 279 283 283 282 283 282 282 288 288 285 286 284 279 282 282 286 288 293 296 294 290 283 287 290 292 292 291 292 292 287 290 284 289 288 292 294 297 299 298 298 298 297
284 282 284 282 284 283 283 281 282 284 284 283 283 285 285 280 282 281 285 285 285 290 288 289 283 287 285 292 292 290 293 293 292 292 291 291 290 295 298 301 297 299 298 297 297
288 287 286 284 280 280 280 282 283 285 286 287 285 284 283 285 289 290 290 289 289 288 286 286 283 284 282 289 288 286 291 292 293 292 292 287 293 297 296 296 297 297 298 298 297
Wind_Speed
22 22 21 19 17 16 17 16 13 12 11 12 12 12 12 12 15 3 4 7 4 3 2 5 2 5 2 2 2 4 6 2 5 6 5 1 5 3 3 6 4 2 7 5 5
23 22 21 21 19 18 17 16 14 12 10 11 11 12 10 10 3 4 8 4 3 1 4 5 4 6 2 1 1 5 4 7 3 7 6 2 2 4 6 5 5 5 3 3 6
22 22 21 21 20 18 19 17 15 12 11 10 11 12 11 6 3 6 3 3 4 3 2 1 2 2 1 1 1 3 6 5 4 4 7 7 3 1 11 2 7 11 7 6 6
23 23 23 22 20 20 18 19 16 13 10 10 11 13 14 2 2 4 6 4 4 2 3 2 1 2 2 1 2 2 4 6 6 5 4 7 5 3 4 6 11 11 10 7 9
23 24 23 22 21 19 19 18 17 14 10 8 10 11 3 4 8 6 6 5 2 1 2 2 5 2 2 4 4 3 2 5 4 5 4 7 5 5 5 3 9 8 7 10 10
23 23 23 22 21 21 19 18 16 14 10 5 6 10 1 3 4 4 5 2 5 3 2 2 2 1 2 2 3 3 2 2 5 7 3 6 5 6 4 7 8 8 10 10 15
23 23 23 23 23 22 21 19 17 14 11 6 2 2 2 12 3 5 2 3 1 2 1 2 4 5 0 4 3 2 0 5 3 6 5 5 4 8 6 8 10 10 9 9 9
24 24 24 24 23 24 23 21 18 13 8 3 3 2 6 4 4 2 4 5 5 4 2 5 3 4 1 1 8 4 5 3 4 3 6 10 9 9 8 9 11 9 9 10 8
25 25 25 26 25 24 24 23 16 10 5 3 1 3 9 8 1 7 5 4 3 1 3 1 5 3 6 5 6 7 2 3 9 3 3 5 6 11 4 10 11 9 9 9 8
26 26 27 27 26 26 27 12 5 4 3 2 2 4 4 4 4 6 6 5 2 3 5 5 6 4 4 5 5 5 3 5 5 2 3 3 6 7 2 5 11 8 9 9 10
28 27 27 28 27 25 13 3 8 5 2 6 7 6 3 4 2 2 4 4 3 6 3 3 4 6 8 6 4 2 4 5 4 3 1 6 8 11 8 4 8 8 10 10 11
28 27 28 29 27 20 2 5 8 8 10 12 17 12 13 3 3 3 3 4 4 4 3 6 4 10 5 5 6 6 7 5 5 3 2 5 9 9 8 8 9 10 12 14 7
28 28 29 31 31 3 2 3 4 4 3 8 6 5 6 10 8 9 9 4 4 4 4 6 8 2 4 4 6 6 6 5 6 4 3 4 9 6 7 6 7 8 14 17 18
28 27 26 32 4 5 5 5 6 2 5 8 4 5 5 8 5 10 10 8 1 9 4 5 2 1 3 4 8 7 6 4 5 3 4 2 9 5 6 9 9 10 9 17 12
31 28 26 10 4 3 6 11 9 5 3 2 1 1 2 7 4 1 3 4 8 7 5 9 4 2 1 5 5 9 4 5 3 3 2 3 2 9 4 7 13 11 12 15 15
33 31 25 2 0 7 11 10 4 7 7 6 5 6 3 5 4 4 3 5 3 4 0 9 1 4 8 6 4 6 5 7 5 3 3 8 8 8 5 4 6 3 6 13 15
33 31 10 2 5 7 8 5 7 4 6 4 6 8 4 3 2 5 1 4 7 4 5 2 5 4 5 3 3 6 7 3 5 3 7 2 2 11 7 13 10 7 8 10 10
35 24 3 4 7 5 4 7 3 2 4 5 8 7 0 8 5 8 2 3 2 2 3 4 9 7 4 8 9 8 10 9 7 5 5 3 7 7 4 7 5 10 10 9 9
27 5 4 6 10 3 7 4 6 3 4 9 6 5 3 6 3 6 3 5 5 9 8 5 8 5 4 5 10 5 4 5 7 2 3 5 8 6 1 6 6 9 8 8 9
6 5 5 12 7 5 6 5 4 3 7 4 2 3 3 7 5 9 4 2 6 3 6 7 9 9 5 5 2 7 9 4 3 4 5 5 6 7 6 6 5 6 9 9 6
4 6 5 15 4 6 4 6 3 9 9 5 3 4 3 3 3 4 6 5 8 10 6 3 5 5 4 6 10 2 2 5 6 6 7 2 8 7 10 9 10 9 9 9 7
4 5 4 7 6 1 2 4 7 7 9 5 3 3 1 3 4 5 6 0 13 3 7 5 5 6 11 4 4 7 12 9 7 6 3 4 11 5 8 10 9 10 6 6 8
3 4 6 5 3 4 6 7 4 9 6 6 4 6 3 3 4 6 3 9 8 7 7 8 5 6 9 7 3 5 5 5 5 5 9 7 11 3 4 5 8 8 8 6 6
3 5 6 6 2 4 5 5 5 10 9 3 6 5 5 3 6 7 11 7 6 3 12 2 7 12 12 9 4 5 6 8 8 5 11 11 19 6 8 10 10 8 7 8 8
3 2 1 6 4 5 2 4 12 9 5 6 4 3 5 5 10 9 5 12 6 12 3 4 6 4 16 20 16 16 8 14 11 20 11 23 17 14 10 12 14 7 7 8 8
3 4 5 4 5 5 4 2 9 13 7 6 13 9 10 7 9 18 6 3 7 6 3 2 6 5 17 16 12 19 15 11 19 22 13 17 13 6 12 14 5 9 10 10 7
2 1 2 3 4 4 4 7 8 9 8 7 15 12 12 13 7 11 10 13 15 13 7 7 4 1 10 9 16 15 25 23 16 6 13 13 16 9 8 11 13 10 12 11 8
Wind_Direction
3 3 1 352 346 341 335 334 336 336 331 324 316 300 305 315 306 199 247 210 141 122 234 304 72 10 82 341 152 109 63 177 178 155 164 298 146 175 8 78 67 59 135 155 149
2 1 359 356 348 341 338 333 332 333 328 321 312 301 313 314 288 283 251 181 105 35 28 36 356 355 39 276 349 98 112 217 224 165 151 143 151 129 89 80 61 69 23 108 114
357 354 354 352 348 342 337 336 332 331 328 319 307 307 314 310 333 255 202 166 120 149 126 156 251 159 140 265 193 167 170 198 184 188 141 146 131 170 130 163 187 166 177 173 103
353 352 349 347 344 339 335 332 331 328 325 317 313 316 315 246 187 260 168 147 139 195 338 327 341 103 108 251 323 169 194 175 184 197 126 155 153 130 158 201 184 176 170 130 113
350 349 346 342 338 335 331 328 326 324 318 317 318 323 5 6 253 260 142 125 167 134 302 23 40 63 57 311 326 168 199 165 178 167 176 132 173 193 217 210 146 176 124 133 124
347 346 342 339 336 331 328 324 321 316 308 308 328 316 57 312 260 262 149 163 204 179 99 79 86 308 92 354 64 300 267 110 161 200 205 154 218 142 248 173 165 177 154 155 144
345 343 340 337 333 329 324 323 317 310 299 291 352 60 75 237 306 359 153 241 170 210 61 144 150 73 164 341 332 303 42 350 226 193 210 139 275 222 190 156 174 193 163 155 162
344 340 338 335 331 327 323 319 313 299 277 261 44 86 250 260 336 294 130 300 268 238 204 159 115 104 136 311 8 27 53 20 290 143 245 138 252 259 183 171 203 179 166 165 176
342 338 335 333 329 327 322 314 305 285 223 182 63 94 268 310 159 235 152 223 290 338 333 90 61 76 25 80 15 4 234 251 315 188 154 172 240 249 239 182 199 177 179 173 166
341 336 333 331 328 329 323 306 303 316 165 192 312 27 293 253 223 173 196 193 173 72 14 43 48 56 38 77 209 216 227 264 249 276 117 200 265 284 239 188 201 187 182 184 183
340 336 332 328 328 331 338 32 12 358 19 211 204 231 266 241 179 166 157 119 85 67 150 12 71 225 230 208 182 223 220 231 259 258 177 237 245 259 262 247 256 227 198 195 200
339 337 332 326 327 323 322 76 126 255 295 241 244 232 238 47 341 312 112 133 136 205 111 16 257 245 245 193 220 246 227 247 289 271 163 272 253 243 249 246 210 205 202 198 176
340 337 333 327 323 9 304 231 26 339 270 295 213 222 216 163 215 254 149 163 158 179 180 169 241 34 215 260 228 222 181 203 216 339 333 327 275 230 247 245 252 230 197 196 185
338 336 335 327 37 322 306 311 334 229 42 279 268 275 127 136 221 212 177 154 128 189 207 218 275 244 353 260 182 223 214 181 146 104 234 37 283 258 229 236 239 239 200 195 180
337 337 336 336 305 350 304 325 320 60 342 271 72 60 116 164 174 8 160 77 168 180 121 244 258 178 340 241 177 226 127 147 134 128 97 316 296 266 288 258 255 237 209 193 178
337 336 340 18 182 251 302 308 49 45 253 330 36 351 50 316 346 101 105 53 141 156 257 242 240 199 209 209 137 139 82 46 46 85 322 213 178 282 255 245 310 306 177 160 151
334 331 332 307 307 307 312 32 39 158 326 17 357 337 320 297 208 18 261 174 169 126 244 286 230 245 172 188 70 83 74 333 336 355 229 176 184 241 285 296 270 232 149 131 128
330 323 256 228 285 311 40 49 187 277 294 42 334 305 331 30 337 345 223 248 275 320 116 180 295 186 185 179 184 190 160 163 216 204 255 309 239 255 293 316 327 122 124 122 146
328 334 335 311 334 39 64 66 221 239 355 349 344 348 307 32 352 335 266 231 234 173 194 192 258 274 189 165 141 186 167 192 108 360 52 240 292 309 282 5 72 102 123 155 178
328 345 286 326 337 62 79 224 247 309 345 13 293 279 305 0 5 357 307 322 330 186 198 242 284 211 219 103 60 163 164 79 1 185 238 272 265 235 217 202 195 170 182 198 195
17 5 275 338 43 52 174 222 330 17 25 347 333 279 34 25 285 240 260 356 3 339 330 205 172 271 131 200 166 149 172 67 123 149 183 223 257 213 205 195 197 208 212 209 201
354 347 329 7 33 19 73 355 331 355 24 336 331 33 109 324 266 269 235 207 6 347 336 323 220 215 220 219 240 217 186 154 143 217 234 173 256 227 215 206 190 214 223 229 203
351 275 316 47 43 6 340 346 279 33 360 333 311 25 292 275 300 253 267 0 30 27 20 354 327 337 331 341 312 207 186 150 115 83 198 173 258 259 221 213 222 225 242 218 187
4 339 326 31 38 72 14 301 341 345 314 317 322 304 5 292 259 281 313 316 10 320 310 298 227 214 241 240 187 208 207 183 149 134 235 223 245 210 197 210 237 233 229 192 183
28 317 7 322 349 348 322 252 280 292 246 27 299 358 310 294 307 264 299 313 309 298 116 106 264 260 270 267 244 227 212 214 195 227 197 250 228 225 219 220 228 235 184 181 188
18 7 3 287 281 267 280 241 295 288 285 295 293 329 307 262 243 287 304 311 240 272 161 234 263 335 293 279 266 251 223 204 211 226 235 254 262 185 227 245 194 205 175 187 185
260 297 161 254 291 291 225 265 277 328 287 282 310 298 292 288 270 280 250 255 259 269 229 202 223 269 276 338 325 258 233 231 231 200 194 221 238 189 226 223 225 203 183 178 183